CAPE
1 1 1 1 1 1 1 1 0 1 1 2 2 1 1 1 0 0 0 0 0 0 0 0 0 0 0 0 0 0 0 0 0 0 0 0 0 0 0 0 0 0 0 0 0
2 2 2 2 2 2 1 1 1 1 2 1 1 1 1 1 0 0 0 0 0 0 0 0 0 0 0 0 0 0 0 0 0 0 0 0 0 0 0 0 0 0 0 0 0
1 1 1 3 2 2 2 1 2 3 2 3 3 1 2 0 0 0 0 0 0 0 0 0 0 0 0 0 0 0 0 0 0 0 0 0 0 0 0 0 0 0 0 0 0
2 2 2 2 2 2 1 2 3 4 5 3 2 3 2 0 0 0 0 0 0 0 0 0 0 0 0 0 0 0 0 0 0 0 0 0 0 0 0 0 0 0 0 0 0
1 2 2 2 1 1 2 3 2 3 3 4 6 5 0 0 0 0 0 0 0 0 0 0 0 0 0 0 0 0 0 0 0 0 0 0 0 0 0 0 0 0 0 0 0
1 1 1 2 1 0 0 1 2 2 3 3 3 2 0 0 0 0 0 0 0 0 0 0 0 0 0 0 0 0 0 0 0 0 0 0 0 0 0 0 0 0 0 0 0
0 1 1 1 2 3 6 3 1 2 5 10 10 4 1 0 0 0 0 0 0 0 0 0 0 0 0 0 0 0 0 0 0 0 0 0 0 0 0 0 0 0 0 0 0
2 1 1 1 1 1 1 1 1 1 2 4 9 5 0 0 0 0 0 0 0 0 0 0 0 0 0 0 0 0 0 0 0 0 0 0 0 0 0 0 0 0 0 0 0
2 1 0 2 2 3 2 1 2 0 3 4 2 1 0 0 0 0 0 0 0 0 0 0 0 0 0 0 0 0 0 0 0 0 0 0 0 0 0 0 0 0 0 0 0
1 1 1 1 2 2 2 0 0 0 4 2 1 0 0 0 0 0 0 0 0 0 0 0 0 0 0 0 0 0 0 0 0 0 0 0 0 0 0 0 0 0 0 0 0
2 1 1 2 2 1 1 0 0 0 2 0 0 0 0 0 0 0 0 0 0 0 0 0 0 0 0 0 0 0 0 0 0 0 0 0 0 0 0 0 0 0 0 0 0
2 1 2 1 1 3 3 0 0 0 0 0 0 0 0 0 0 0 0 0 0 0 0 0 0 0 0 0 0 0 0 0 0 0 0 0 0 0 0 0 0 0 0 0 0
2 1 1 2 0 1 0 0 0 0 0 0 0 0 0 0 0 0 0 0 0 0 0 0 0 0 0 0 0 0 0 0 0 0 0 0 0 0 0 0 0 0 0 0 0
2 2 2 0 0 0 0 0 0 0 0 0 0 0 0 0 0 0 0 0 0 0 0 0 0 0 0 0 0 0 0 0 0 0 0 0 0 0 0 0 0 0 0 0 0
2 3 4 4 5 0 0 0 0 0 0 0 0 0 0 0 0 0 0 0 0 0 0 0 0 0 0 0 0 0 0 0 0 0 0 0 0 0 0 0 0 0 0 6 0
4 1 11 5 7 0 0 0 0 0 0 0 0 0 0 0 0 0 0 0 0 0 0 0 0 0 0 0 0 0 0 0 0 2 0 0 0 0 0 1 0 0 0 0 0
0 0 4 8 0 0 0 0 0 0 0 0 0 0 0 0 0 0 0 0 0 0 0 0 0 0 0 0 0 0 1 2 0 1 0 4 2 0 16 1 0 0 0 0 0
0 0 1 1 0 2 0 3 2 0 0 74 45 39 4 0 0 0 0 0 0 0 0 0 0 0 0 0 0 1 5 0 8 0 0 2 0 8 18 0 3 0 0 0 0
0 0 0 0 0 4 0 0 0 0 12 11 189 132 124 84 23 0 0 0 0 0 1 3 3 0 0 0 0 2 12 5 18 14 24 18 28 16 0 0 0 0 0 0 0
3 6 0 1 6 9 0 0 0 3 95 185 141 173 208 196 110 63 2 0 1 0 0 16 29 0 0 3 29 12 5 10 24 25 16 21 39 54 4 0 0 0 0 0 0
3 1 3 3 6 10 0 0 0 2 133 131 83 142 204 184 119 35 7 1 3 0 0 17 24 31 31 5 28 17 13 11 46 22 15 21 46 5 46 16 0 0 0 0 0
14 4 4 9 23 37 6 8 3 53 70 36 122 108 156 189 222 70 1 1 0 1 0 1 26 51 1 26 18 45 49 59 26 23 31 35 32 0 3 40 7 0 0 0 0
9 3 2 23 6 58 73 60 50 110 110 125 111 106 122 133 80 90 62 3 0 0 8 1 5 26 25 1 6 2 24 58 73 66 17 54 47 0 0 12 0 0 0 0 0
13 6 28 16 93 42 19 1 58 114 107 75 63 79 93 100 130 48 15 0 0 0 0 39 55 34 54 54 78 28 35 61 77 44 21 31 48 4 0 0 0 0 0 0 0
14 20 24 5 22 14 14 27 31 1 44 67 32 34 27 65 42 62 67 7 13 16 19 37 67 85 27 12 0 25 25 31 28 17 36 44 26 60 39 0 2 0 0 0 0
10 16 16 21 13 18 17 11 15 6 4 0 33 38 17 12 64 42 38 29 38 12 16 18 28 34 13 11 17 14 20 3 4 12 11 16 30 39 46 95 52 0 0 0 0
7 34 4 2 13 14 25 16 2 3 16 0 4 38 48 1 0 1 0 0 27 43 35 50 26 3 27 20 17 4 0 0 4 20 24 34 38 28 30 23 45 0 0 0 0
CIN
-0 -0 -0 -0 -0 -0 -0 -0 -0 -0 -0 -0 -0 -0 -0 -0 -0 -0 -0 -0 -0 -0 -0 -0 -0 -0 -0 -0 -0 -0 -0 -0 -0 -0 -0 -0 -0 -0 -0 -0 -0 -0 -0 -0 -0
-0 -0 -0 -0 -0 -0 -0 -0 -0 -0 -0 -0 -0 -0 -0 -0 -0 -0 -0 -0 -0 -0 -0 -0 -0 -0 -0 -0 -0 -0 -0 -0 -0 -0 -0 -0 -0 -0 -0 -0 -0 -0 -0 -0 -0
-0 -0 -0 -0 -0 -0 -0 -0 -0 -0 -1 -1 -0 -0 -0 -0 -0 -0 -0 -0 -0 -0 -0 -0 -0 -0 -0 -0 -0 -0 -0 -0 -0 -0 -0 -0 -0 -0 -0 -0 -0 -0 -0 -0 -0
-0 -0 -0 -0 -0 -1 -0 -0 -0 -0 -0 -0 -0 -0 -0 -0 -0 -0 -0 -0 -0 -0 -0 -0 -0 -0 -0 -0 -0 -0 -0 -0 -0 -0 -0 -0 -0 -0 -0 -0 -0 -0 -0 -0 -0
-1 -0 -0 -1 -0 -0 -0 -0 -0 -0 -0 -0 -1 -2 -0 -0 -0 -0 -0 -0 -0 -0 -0 -0 -0 -0 -0 -0 -0 -0 -0 -0 -0 -0 -0 -0 -0 -0 -0 -0 -0 -0 -0 -0 -0
-1 -1 -1 -1 -0 -0 -0 -1 -1 -0 -0 -0 -0 -3 -0 -0 -0 -0 -0 -0 -0 -0 -0 -0 -0 -0 -0 -0 -0 -0 -0 -0 -0 -0 -0 -0 -0 -0 -0 -0 -0 -0 -0 -0 -0
-2 -0 -0 -0 -1 -0 -0 -0 -0 -0 -0 -0 -0 -0 -0 -0 -0 -0 -0 -0 -0 -0 -0 -0 -0 -0 -0 -0 -0 -0 -0 -0 -0 -0 -0 -0 -0 -0 -0 -0 -0 -0 -0 -0 -0
-1 -0 -0 -0 -0 -0 -0 -0 -1 -1 -0 -0 -0 -0 -0 -0 -0 -0 -0 -0 -0 -0 -0 -0 -0 -0 -0 -0 -0 -0 -0 -0 -0 -0 -0 -0 -0 -0 -0 -0 -0 -0 -0 -0 -0
-0 -0 -0 -1 -0 -0 -0 -0 -0 -0 -1 -1 -0 -0 -0 -0 -0 -0 -0 -0 -0 -0 -0 -0 -0 -0 -0 -0 -0 -0 -0 -0 -0 -0 -0 -0 -0 -0 -0 -0 -0 -0 -0 -0 -0
-1 -0 -0 -0 -0 -0 -0 -0 -0 -1 -0 -1 -0 -0 -0 -0 -0 -0 -0 -0 -0 -0 -0 -0 -0 -0 -0 -0 -0 -0 -0 -0 -0 -0 -0 -0 -0 -0 -0 -0 -0 -0 -0 -0 -0
-0 -0 -0 -0 -0 -0 -0 -0 -0 -0 -0 -0 -0 -0 -0 -0 -0 -0 -0 -0 -0 -0 -0 -0 -0 -0 -0 -0 -0 -0 -0 -0 -0 -0 -0 -0 -0 -0 -0 -0 -0 -0 -0 -0 -0
-0 -0 -0 -0 -0 -0 -0 -0 -0 -0 -0 -0 -0 -0 -0 -0 -0 -0 -0 -0 -0 -0 -0 -0 -0 -0 -0 -0 -0 -0 -0 -0 -0 -0 -0 -0 -0 -0 -0 -0 -0 -0 -0 -0 -0
-0 -0 -0 -0 -0 -0 -0 -0 -0 -0 -0 -0 -0 -0 -0 -0 -0 -0 -0 -0 -0 -0 -0 -0 -0 -0 -0 -0 -0 -0 -0 -0 -0 -0 -0 -0 -0 -0 -0 -0 -0 -0 -0 -0 -0
-0 -1 -0 -0 -0 -0 -0 -0 -0 -0 -0 -0 -0 -0 -0 -0 -0 -0 -0 -0 -0 -0 -0 -0 -0 -0 -0 -0 -0 -0 -0 -0 -0 -0 -0 -0 -0 -0 -0 -0 -0 -0 -0 -0 -0
-0 -1 -4 -1 -0 -0 -0 -0 -0 -0 -0 -0 -0 -0 -0 -0 -0 -0 -0 -0 -0 -0 -0 -0 -0 -0 -0 -0 -0 -0 -0 -0 -0 -0 -0 -0 -0 -6 -0 -0 -0 -0 -0 -124 -0
-1 -3 -1 -0 -0 -0 -0 -0 -0 -0 -0 -0 -0 -0 -0 -0 -0 -0 -0 -0 -0 -0 -0 -0 -0 -0 -0 -0 -0 -0 -0 -0 -0 -27 -1 -0 -0 -0 -0 -0 -0 -0 -0 -0 -0
-0 -3 -2 -0 -0 -0 -0 -0 -0 -0 -0 -0 -0 -0 -0 -0 -0 -0 -0 -0 -0 -0 -0 -0 -0 -0 -0 -0 -0 -0 -1 -3 -0 -2 -0 -7 -3 -0 -20 -9 -0 -0 -0 -0 -0
-0 -0 -0 -0 -0 -1 -0 -0 -0 -0 -0 -11 -21 -45 -39 -0 -0 -0 -0 -0 -0 -0 -0 -0 -0 -0 -0 -0 -0 -2 -4 -1 -10 -1 -0 -4 -1 -4 -36 -0 -45 -0 -0 -0 -0
-0 -0 -0 -0 -0 -0 -0 -0 -0 -0 -1 -36 -0 -2 -3 -5 -3 -0 -0 -0 -0 -0 -4 -5 -3 -0 -0 -0 -0 -5 -5 -4 -6 -15 -5 -10 -6 -60 -0 -0 -0 -0 -0 -0 -0
-0 -0 -0 -0 -0 -0 -0 -0 -0 -12 -2 -2 -3 -1 -3 -3 -4 -6 -2 -0 -2 -0 -0 -3 -3 -0 -0 -6 -8 -5 -12 -5 -5 -3 -3 -5 -7 -4 -35 -0 -0 -0 -0 -0 -0
-0 -0 -2 -0 -0 -0 -11 -0 -0 -2 -2 -5 -7 -2 -1 -2 -5 -17 -16 -7 -4 -1 -0 -8 -7 -3 -6 -2 -5 -3 -5 -4 -4 -20 -2 -4 -5 -14 -5 -15 -8 -0 -0 -0 -0
-0 -0 -1 -4 -0 -14 -38 -33 -61 -18 -22 -29 -4 -8 -1 -1 -2 -10 -4 -5 -0 -5 -0 -1 -2 -7 -3 -10 -23 -7 -5 -3 -3 -1 -2 -2 -4 -0 -6 -4 -53 -0 -0 -0 -0
-0 -2 -0 -21 -0 -0 -2 -2 -7 -3 -3 -2 -3 -3 -2 -6 -6 -8 -3 -67 -0 -0 -6 -15 -4 -2 -6 -1 -21 -8 -1 -1 -1 -2 -3 -3 -3 -0 -0 -45 -0 -0 -0 -0 -0
-0 -0 -2 -3 -3 -0 -2 -16 -0 -1 -3 -2 -9 -18 -4 -4 -12 -10 -9 -0 -0 -0 -0 -18 -4 -3 -3 -4 -2 -8 -1 -2 -4 -1 -3 -4 -6 -49 -24 -0 -0 -0 -0 -0 -0
-1 -1 -1 -1 -1 -2 -0 -0 -10 -0 -3 -7 -12 -3 -11 -1 -5 -2 -1 -59 -11 -25 -17 -8 -1 -1 -42 -37 -25 -2 -2 -2 -2 -2 -2 -3 -23 -4 -5 -0 -3 -0 -0 -0 -0
-0 -1 -2 -0 -1 -1 -2 -0 -10 -1 -0 -0 -0 -1 -9 -7 -2 -1 -1 -5 -1 -17 -13 -33 -1 -1 -2 -1 -1 -3 -2 -2 -1 -1 -2 -3 -3 -6 -3 -3 -3 -0 -0 -0 -0
-11 -0 -0 -0 -1 -2 -1 -0 -0 -0 -7 -0 -0 -0 -0 -0 -0 -0 -0 -0 -12 -2 -4 -4 -1 -2 -2 -2 -1 -1 -0 -0 -1 -1 -2 -3 -4 -9 -7 -7 -1 -0 -0 -0 -0
Wind_Speed
18 16 13 9 8 13 28 29 28 29 30 30 32 33 33 33 34 25 22 19 17 17 13 10 12 12 12 16 17 19 27 30 30 29 27 21 24 21 22 25 25 24 24 23 22
22 19 16 15 15 13 16 22 26 30 30 30 32 33 34 35 36 25 19 19 13 10 12 11 13 12 14 16 17 20 27 30 28 26 26 25 25 27 26 27 28 28 27 25 20
26 23 24 20 20 20 20 21 23 25 27 29 30 31 32 32 28 17 14 9 9 7 11 12 11 12 17 16 17 20 29 26 27 27 26 29 28 26 29 31 29 30 26 19 19
25 27 26 25 25 26 25 26 26 26 26 27 28 28 27 22 13 15 15 8 5 4 8 11 13 16 19 20 19 26 26 28 27 24 26 27 26 28 28 32 30 29 23 23 24
27 27 26 27 26 26 24 24 24 23 25 27 26 23 20 13 8 19 12 6 1 4 8 11 15 18 22 21 19 24 26 25 26 26 25 27 28 29 30 28 27 24 21 25 23
31 29 28 27 27 26 25 25 25 24 21 18 16 15 11 9 14 10 7 2 2 3 8 13 18 17 22 21 20 19 24 24 24 25 22 23 25 23 28 24 19 18 20 20 22
30 30 30 31 31 31 30 27 28 28 26 17 10 8 10 4 13 9 4 1 4 3 6 11 17 15 18 20 19 22 24 24 25 23 21 21 25 24 24 16 16 19 19 17 18
30 30 31 32 32 33 33 32 31 28 20 16 8 8 13 10 8 6 4 4 5 7 11 11 14 18 20 18 18 23 24 28 19 16 18 18 21 15 17 16 18 16 14 14 14
30 30 32 33 35 36 36 33 33 22 18 11 11 10 15 10 6 3 3 5 4 6 10 11 11 18 18 21 22 21 26 22 16 17 16 18 20 18 17 19 19 17 14 18 16
32 32 33 34 35 36 36 35 21 18 13 11 15 13 9 10 7 2 4 3 4 5 8 9 11 16 21 23 26 26 25 23 24 16 19 22 25 24 19 18 20 20 17 14 14
35 35 35 37 36 36 37 21 20 19 12 13 14 12 12 10 6 3 6 5 3 6 11 10 14 16 17 23 29 24 25 25 22 21 24 25 25 22 18 18 19 21 20 17 14
37 37 37 37 38 39 25 20 24 24 29 14 12 11 9 10 6 1 9 5 7 9 11 12 18 15 20 22 24 27 29 28 25 24 23 23 24 19 17 16 19 21 20 13 11
36 37 37 36 40 25 22 24 25 24 29 26 13 12 9 8 7 5 13 11 9 10 11 14 18 15 15 18 22 26 29 27 26 17 20 23 25 18 14 14 15 16 13 9 8
36 36 36 37 28 27 29 17 22 18 30 25 17 14 5 4 10 6 14 14 7 11 12 19 15 16 16 21 20 29 24 28 27 25 27 18 28 15 16 15 14 14 11 7 7
35 34 32 29 28 25 23 20 22 16 32 15 11 7 1 5 5 7 12 12 8 9 13 15 18 19 20 18 19 28 24 24 25 24 27 21 25 17 13 18 15 13 10 8 9
36 32 30 28 19 21 25 23 17 23 31 15 8 5 4 9 6 7 10 9 13 14 15 20 14 19 22 20 19 17 16 20 21 21 28 25 22 23 18 18 15 13 12 10 9
34 30 28 24 24 21 18 12 22 28 16 14 12 8 7 8 7 6 10 12 8 9 12 17 19 17 15 14 12 16 18 21 23 27 31 20 22 28 14 13 15 13 12 10 9
35 33 26 21 21 21 20 17 32 26 21 16 12 13 10 9 10 8 10 13 12 11 13 14 18 15 11 16 14 17 19 24 26 25 26 17 27 21 16 18 10 9 8 8 9
39 31 27 23 21 15 15 29 31 25 25 26 19 17 17 16 13 11 11 13 13 12 14 14 19 10 13 12 18 17 23 24 26 22 25 19 18 17 15 12 10 8 9 9 9
36 32 27 22 13 9 18 29 24 35 30 28 30 20 24 19 17 14 11 14 12 11 13 14 12 11 11 13 16 17 21 21 25 29 31 29 27 25 16 12 10 10 9 9 10
28 30 21 16 9 13 21 22 29 40 31 29 29 33 26 33 18 20 17 15 18 9 9 14 18 10 10 12 10 13 19 24 26 26 29 33 27 22 15 10 11 11 10 10 11
27 28 21 11 16 15 21 29 31 27 27 34 35 36 32 28 29 22 28 17 18 17 11 10 15 14 11 13 19 21 16 17 23 26 28 32 32 17 17 11 10 10 11 12 12
26 24 17 11 18 20 32 33 18 28 29 24 31 32 33 33 32 26 23 23 22 19 15 10 13 13 20 19 20 23 19 24 25 29 29 28 22 13 13 11 10 10 10 11 14
21 23 15 11 11 30 31 32 33 29 21 44 33 27 23 29 34 24 23 20 19 26 25 17 15 13 18 18 18 15 21 19 22 27 27 28 21 16 12 10 8 9 12 14 16
15 15 18 15 25 29 27 29 32 28 31 28 30 32 28 36 25 27 19 17 12 18 20 18 22 21 22 20 19 20 16 16 23 24 31 27 21 24 14 12 8 7 11 15 19
15 16 19 11 26 27 28 28 26 24 28 32 34 28 20 28 21 16 18 20 17 15 15 19 22 15 13 21 23 27 24 23 23 23 26 25 28 25 20 17 11 12 14 18 18
12 17 18 16 25 26 24 23 24 23 23 24 28 18 20 20 22 27 16 18 16 17 19 20 18 19 24 18 24 30 27 26 25 20 21 27 26 17 17 17 14 14 17 17 20
Wind_Direction
26 29 32 37 34 21 343 334 336 330 327 323 317 313 310 311 307 310 306 306 300 285 283 273 265 268 269 272 276 275 269 268 270 273 275 282 278 286 285 279 279 278 277 285 295
15 18 22 21 19 19 10 355 342 329 328 328 320 311 310 306 297 301 301 298 289 282 268 256 255 254 261 267 273 265 267 270 277 275 275 280 281 281 281 279 277 277 276 280 287
3 8 3 8 8 6 5 360 352 344 337 329 326 321 314 312 314 321 323 300 285 260 264 264 257 256 264 266 264 267 268 274 276 276 279 277 279 282 277 275 278 275 275 274 283
2 357 356 356 357 354 354 351 347 342 339 332 328 327 327 330 346 340 333 332 276 215 257 258 252 256 261 264 264 269 270 273 278 280 277 277 281 280 279 277 280 278 272 273 277
357 355 355 352 353 351 353 353 350 347 340 333 330 334 338 335 298 326 345 11 336 236 244 251 255 258 261 264 269 268 274 277 275 278 278 280 280 282 283 285 284 281 273 272 274
349 351 351 349 347 347 348 348 346 346 343 341 341 343 348 330 336 342 338 10 314 240 258 264 267 265 267 269 264 280 272 277 280 279 282 283 284 289 289 289 287 283 280 274 275
349 348 346 341 340 337 341 343 341 341 340 347 354 6 343 315 339 349 360 128 301 262 266 270 281 264 274 270 271 278 275 277 275 275 279 284 282 285 292 300 293 287 283 280 275
347 346 342 338 336 334 333 335 336 337 346 352 15 6 339 350 325 325 347 301 286 294 293 285 282 267 272 281 274 270 272 271 271 269 278 280 285 297 307 294 294 296 290 283 279
347 346 342 337 332 329 328 331 331 341 352 14 10 352 338 354 325 208 194 303 261 277 301 291 275 270 267 267 267 266 267 264 269 273 280 275 284 297 301 298 296 293 297 277 277
344 341 339 336 332 329 329 328 340 346 358 2 348 345 335 349 355 340 173 254 237 250 280 281 273 268 262 258 260 262 263 266 266 278 273 276 279 290 294 296 295 290 289 291 282
339 337 334 332 331 330 328 339 336 334 331 326 337 335 358 359 11 353 157 163 253 226 258 251 255 252 260 261 261 270 266 268 271 277 278 277 282 284 296 298 297 293 285 283 287
334 332 332 330 328 325 331 327 329 330 318 301 273 270 284 335 323 337 157 177 198 230 249 262 255 260 266 265 266 265 266 269 277 278 274 278 281 285 294 300 304 302 289 270 287
334 332 331 331 326 333 328 320 325 328 316 317 296 279 262 228 269 208 178 186 201 212 227 264 279 258 262 263 265 266 266 270 274 285 275 279 279 279 288 299 312 315 300 287 290
333 332 332 332 331 332 321 333 332 326 314 311 311 311 261 237 268 226 182 183 239 217 249 264 271 272 255 263 265 266 272 271 274 270 270 267 274 267 278 285 300 311 306 300 307
333 333 333 336 325 326 330 332 325 332 310 334 328 353 7 212 316 201 179 187 233 254 244 264 260 258 262 268 272 266 274 273 273 270 268 272 273 285 276 274 284 294 305 305 304
331 331 331 330 324 318 315 312 320 303 296 312 325 299 259 225 280 159 182 214 262 267 263 267 276 272 266 265 270 273 277 277 275 269 264 267 270 271 273 267 277 287 293 295 300
331 329 325 320 318 320 318 317 293 284 318 295 297 273 240 236 241 204 195 199 239 233 247 260 259 273 272 256 262 265 265 270 268 260 264 270 266 266 287 282 284 286 289 296 300
331 327 321 312 311 298 298 283 279 301 271 320 291 271 236 245 237 221 210 208 225 256 270 254 262 244 252 258 264 260 259 264 268 268 266 269 268 275 286 284 286 296 306 305 301
333 332 324 320 311 290 273 271 267 287 295 285 285 270 259 254 267 236 231 223 227 242 271 263 269 266 247 256 262 269 260 269 271 277 271 276 280 287 287 282 279 284 294 299 304
335 333 327 330 325 294 271 259 266 273 283 283 273 271 265 252 252 223 234 246 225 213 256 279 271 270 256 262 270 268 268 265 264 267 267 272 272 281 277 270 266 273 284 292 297
341 336 345 349 345 306 283 272 273 265 278 278 272 266 269 260 249 254 248 272 241 225 210 264 267 269 267 253 252 266 266 269 272 270 270 269 280 296 287 267 267 272 281 286 292
344 337 350 353 320 309 298 283 278 272 272 270 263 259 261 263 257 251 249 253 264 262 204 206 267 264 258 276 271 272 277 272 269 270 274 273 276 302 298 292 280 276 282 287 294
344 341 358 354 330 319 290 282 283 271 271 275 267 263 255 252 250 254 255 255 257 263 265 230 261 257 270 271 271 267 271 273 275 273 274 276 289 322 314 295 286 281 286 290 294
356 354 7 1 345 295 284 277 267 265 264 240 264 265 267 255 246 254 256 266 267 256 256 260 267 239 265 285 278 264 271 273 274 276 281 280 290 304 310 305 292 282 285 290 295
9 10 3 1 321 277 291 269 262 269 256 253 252 247 252 239 254 249 249 252 263 254 257 264 267 264 268 278 282 279 282 279 275 280 275 287 290 293 305 298 290 296 294 295 299
5 9 359 239 265 272 272 268 271 273 257 247 244 252 258 248 255 255 249 250 265 260 263 259 265 272 272 270 273 278 283 285 285 286 286 287 286 298 306 304 289 295 302 303 303
16 349 352 360 275 269 270 269 269 295 260 256 249 258 259 262 264 256 269 272 277 267 263 261 263 268 269 278 279 275 280 281 281 283 286 282 293 305 304 302 293 295 300 306 309